FW8568 Weather Reports


Display with metric or nautical units.
time (UTC)temp
F
wind
direction
speed
MPH
gust
MPH
rain 1hr
in
rain 24hr
in
rain mn
in
humidity
%
barometer
mb
20260504190652 75 112 2.0 5.0 0.00 0.00 0.00 43 1012.6
20260504190149 75 109 3.0 5.0 0.00 0.00 0.00 42 1012.5
20260504185645 75 98 7.0 8.0 0.00 0.00 0.00 42 1012.5
20260504185142 75 83 3.0 6.0 0.00 0.00 0.00 43 1012.5
20260504184638 74 73 2.0 6.0 0.00 0.00 0.00 44 1012.4
20260504184133 74 140 3.0 5.0 0.00 0.00 0.00 44 1012.4
20260504183630 74 111 5.0 5.0 0.00 0.00 0.00 44 1012.3
20260504183128 74 329 1.0 8.0 0.00 0.00 0.00 44 1012.3
20260504182625 74 149 0.0 4.0 0.00 0.00 0.00 45 1012.3
20260504182123 74 96 4.0 4.0 0.00 0.00 0.00 44 1012.3
20260504181620 73 95 0.0 6.0 0.00 0.00 0.00 45 1012.6
20260504181117 73 65 1.0 5.0 0.00 0.00 0.00 45 1012.7
20260504180617 73 78 1.0 6.0 0.00 0.00 0.00 46 1012.9
20260504180115 73 115 5.0 5.0 0.00 0.00 0.00 46 1013.2
20260504175612 73 114 1.0 6.0 0.00 0.00 0.00 46 1013.0
20260504175108 73 92 3.0 6.0 0.00 0.00 0.00 46 1013.0
20260504174607 73 152 4.0 8.0 0.00 0.00 0.00 47 1012.6
20260504174103 73 86 3.0 11.0 0.00 0.00 0.00 46 1012.7
20260504173600 73 110 2.0 6.0 0.00 0.00 0.00 46 1012.5
20260504173058 73 97 1.0 4.0 0.00 0.00 0.00 46 1012.0
20260504172553 73 59 0.0 2.0 0.00 0.00 0.00 46 1011.7
20260504172050 73 299 0.0 0.0 0.00 0.00 0.00 46 1011.6
20260504171547 73 144 0.0 1.0 0.00 0.00 0.00 46 1011.9
20260504171044 72 45 1.0 4.0 0.00 0.00 0.00 48 1012.2
20260504170539 72 134 3.0 4.0 0.00 0.00 0.00 48 1012.6
20260504150924 73 119 2.0 6.0 0.00 0.00 0.00 44 1012.2
20260504150420 73 117 2.0 4.0 0.00 0.00 0.00 42 1012.0
20260504140847 73 118 0.0 1.0 0.00 0.00 0.00 41 1010.5
20260504140343 73 314 0.0 0.0 0.00 0.00 0.00 40 1010.9
20260504130812 71 283 1.0 1.0 0.00 0.00 0.00 42 1010.7
20260504130308 71 317 0.0 1.0 0.00 0.00 0.00 42 1010.7
20260504120231 73 103 1.0 2.0 0.00 0.00 0.00 40 1010.0
20260504110659 73 77 0.0 2.0 0.00 0.00 0.00 39 1010.0
20260504110155 73 33 1.0 2.0 0.00 0.00 0.00 39 1010.2
20260504100119 74 318 0.0 3.0 0.00 0.00 0.00 39 1009.8
20260504081512 76 104 0.0 2.0 0.00 0.00 0.00 36 1009.3
20260504081008 75 245 0.0 0.0 0.00 0.00 0.00 34 1009.5
20260504080504 75 245 0.0 0.0 0.00 0.00 0.00 34 1009.5
20260504050317 81 339 0.0 2.0 0.00 0.00 0.00 28 1009.3
20260504045814 81 355 1.0 2.0 0.00 0.00 0.00 28 1009.4
20260504045309 81 275 0.0 3.0 0.00 0.00 0.00 27 1009.1
20260504044806 82 74 1.0 4.0 0.00 0.00 0.00 28 1009.2
20260504044303 82 64 2.0 4.0 0.00 0.00 0.00 27 1009.1
20260504043801 82 192 1.0 4.0 0.00 0.00 0.00 27 1009.1
20260504043258 82 92 2.0 3.0 0.00 0.00 0.00 26 1009.0
20260504042755 82 103 0.0 2.0 0.00 0.00 0.00 27 1009.1
20260504042251 82 70 1.0 2.0 0.00 0.00 0.00 26 1009.1
20260504041748 82 350 2.0 4.0 0.00 0.00 0.00 25 1008.7
20260504041244 82 126 0.0 2.0 0.00 0.00 0.00 26 1008.7
20260504040740 83 133 4.0 5.0 0.00 0.00 0.00 25 1008.8
20260504040238 83 58 3.0 4.0 0.00 0.00 0.00 24 1008.6
20260504035733 83 89 1.0 3.0 0.00 0.00 0.00 23 1008.6
20260504035231 84 32 0.0 5.0 0.00 0.00 0.00 22 1008.4
20260504034728 83 343 2.0 4.0 0.00 0.00 0.00 22 1008.1
20260504034225 84 163 0.0 2.0 0.00 0.00 0.00 22 1008.0
20260504033723 84 140 3.0 5.0 0.00 0.00 0.00 22 1008.1
20260504033220 84 117 3.0 4.0 0.00 0.00 0.00 21 1008.0
20260504032717 84 64 4.0 5.0 0.00 0.00 0.00 21 1008.0
20260504032214 84 66 2.0 4.0 0.00 0.00 0.00 21 1007.5
20260504031711 85 132 0.0 4.0 0.00 0.00 0.00 20 1007.8
20260504031208 85 49 1.0 4.0 0.00 0.00 0.00 21 1007.8
20260504030704 85 84 2.0 5.0 0.00 0.00 0.00 20 1007.5
20260504030201 86 100 2.0 6.0 0.00 0.00 0.00 20 1007.3
20260504025658 86 112 3.0 4.0 0.00 0.00 0.00 20 1007.2
20260504025154 86 14 2.0 5.0 0.00 0.00 0.00 20 1006.9
20260504024652 86 342 3.0 4.0 0.00 0.00 0.00 20 1006.8
20260504024148 86 95 2.0 5.0 0.00 0.00 0.00 20 1006.7
20260504023645 87 101 1.0 6.0 0.00 0.00 0.00 19 1006.7
20260504023141 87 74 4.0 6.0 0.00 0.00 0.00 20 1006.5
20260504022637 87 76 3.0 6.0 0.00 0.00 0.00 19 1006.4
20260504022133 87 94 0.0 5.0 0.00 0.00 0.00 19 1006.5
20260504021632 88 101 1.0 6.0 0.00 0.00 0.00 18 1006.3
20260504021128 88 45 2.0 5.0 0.00 0.00 0.00 18 1006.2
20260504020625 88 81 2.0 8.0 0.00 0.00 0.00 18 1006.1
20260504020121 88 115 5.0 5.0 0.00 0.00 0.00 18 1006.3
20260504015618 89 110 2.0 4.0 0.00 0.00 0.00 18 1005.9
20260504015114 89 57 3.0 5.0 0.00 0.00 0.00 18 1005.7
20260504014610 89 60 2.0 5.0 0.00 0.00 0.00 18 1005.7
20260504014107 89 58 4.0 6.0 0.00 0.00 0.00 19 1005.8
20260504013605 90 69 3.0 9.0 0.00 0.00 0.00 19 1005.7
20260504013101 91 112 4.0 7.0 0.00 0.00 0.00 19 1005.8
20260504012559 91 87 3.0 6.0 0.00 0.00 0.00 18 1005.7
20260504012057 91 75 2.0 9.0 0.00 0.00 0.00 18 1005.3
20260504011553 91 118 3.0 7.0 0.00 0.00 0.00 18 1005.6
20260504011049 92 87 3.0 8.0 0.00 0.00 0.00 19 1005.5
20260504010545 92 80 7.0 9.0 0.00 0.00 0.00 18 1005.4
20260504010041 94 101 6.0 10.0 0.00 0.00 0.00 18 1005.4
20260504005538 94 71 5.0 12.0 0.00 0.00 0.00 18 1005.5
20260504005036 94 101 3.0 10.0 0.00 0.00 0.00 17 1005.6
20260504004533 94 85 5.0 10.0 0.00 0.00 0.00 17 1005.9
20260504004030 95 86 7.0 8.0 0.00 0.00 0.00 17 1005.8
20260504003526 95 99 5.0 11.0 0.00 0.00 0.00 17 1005.7
20260504003023 95 52 8.0 9.0 0.00 0.00 0.00 17 1005.4
20260504002520 95 57 2.0 16.0 0.00 0.00 0.00 17 1005.6
20260504002018 96 79 3.0 12.0 0.00 0.00 0.00 17 1005.5
20260504001515 96 89 4.0 8.0 0.00 0.00 0.00 16 1005.4
20260504001011 97 82 3.0 7.0 0.00 0.00 0.00 16 1005.5
20260504000509 96 86 5.0 9.0 0.00 0.00 0.00 17 1005.5
20260504000006 96 97 7.0 14.0 0.00 0.00 0.00 16 1005.4
20260503235504 97 113 4.0 9.0 0.00 0.00 0.00 16 1005.5
20260503235000 97 110 4.0 9.0 0.00 0.00 0.00 16 1005.6
20260503234458 97 28 3.0 11.0 0.00 0.00 0.00 16 1005.5
20260503233956 98 121 5.0 9.0 0.00 0.00 0.00 16 1005.4
20260503233452 98 87 4.0 12.0 0.00 0.00 0.00 16 1005.5
20260503232948 99 112 4.0 11.0 0.00 0.00 0.00 15 1005.3
20260503232445 100 82 1.0 6.0 0.00 0.00 0.00 14 1005.4
20260503231943 100 62 2.0 6.0 0.00 0.00 0.00 15 1005.3
20260503231440 100 94 5.0 6.0 0.00 0.00 0.00 14 1005.5
20260503230937 100 111 3.0 5.0 0.00 0.00 0.00 14 1005.4
20260503230434 100 42 2.0 7.0 0.00 0.00 0.00 15 1005.6
20260503225931 99 85 3.0 10.0 0.00 0.00 0.00 15 1005.7
20260503225428 99 100 2.0 5.0 0.00 0.00 0.00 15 1005.5
20260503224924 100 76 2.0 7.0 0.00 0.00 0.00 15 1005.6
20260503224421 100 63 3.0 6.0 0.00 0.00 0.00 15 1005.8
20260503223918 100 54 2.0 4.0 0.00 0.00 0.00 14 1005.9
20260503223416 99 101 6.0 7.0 0.00 0.00 0.00 15 1006.0
20260503222916 99 86 3.0 5.0 0.00 0.00 0.00 15 1006.2
20260503222415 99 94 3.0 9.0 0.00 0.00 0.00 15 1006.1
20260503221913 100 82 4.0 9.0 0.00 0.00 0.00 15 1006.2
20260503221411 100 133 3.0 7.0 0.00 0.00 0.00 15 1006.4
20260503220908 99 83 4.0 7.0 0.00 0.00 0.00 15 1006.1
20260503220404 100 71 2.0 3.0 0.00 0.00 0.00 16 1006.4
20260503215901 99 45 2.0 3.0 0.00 0.00 0.00 16 1006.6
20260503215358 99 75 1.0 5.0 0.00 0.00 0.00 17 1006.7
20260503214855 98 22 2.0 4.0 0.00 0.00 0.00 16 1006.5
20260503214353 98 165 0.0 4.0 0.00 0.00 0.00 16 1006.9
20260503213850 97 71 2.0 4.0 0.00 0.00 0.00 17 1006.9
20260503213348 98 247 0.0 2.0 0.00 0.00 0.00 17 1007.0
20260503212844 96 214 1.0 3.0 0.00 0.00 0.00 18 1006.9
20260503212342 96 15 1.0 3.0 0.00 0.00 0.00 18 1007.2
20260503211839 97 271 1.0 4.0 0.00 0.00 0.00 17 1007.4
20260503211336 98 277 0.0 3.0 0.00 0.00 0.00 17 1007.3
20260503210831 97 95 2.0 3.0 0.00 0.00 0.00 17 1007.5
20260503210329 96 259 2.0 4.0 0.00 0.00 0.00 17 1007.6
20260503205823 97 308 0.0 5.0 0.00 0.00 0.00 17 1007.9
20260503205320 97 298 2.0 4.0 0.00 0.00 0.00 17 1007.6
20260503204817 96 357 2.0 6.0 0.00 0.00 0.00 18 1007.8
20260503204315 95 111 1.0 4.0 0.00 0.00 0.00 18 1008.2
20260503203812 95 193 1.0 5.0 0.00 0.00 0.00 18 1008.2
20260503203309 95 274 3.0 3.0 0.00 0.00 0.00 18 1008.3
20260503202806 96 249 2.0 3.0 0.00 0.00 0.00 18 1008.5
20260503202304 96 335 0.0 3.0 0.00 0.00 0.00 18 1008.4
20260503201801 96 327 1.0 3.0 0.00 0.00 0.00 18 1008.6
20260503201258 96 43 2.0 3.0 0.00 0.00 0.00 19 1008.4
20260503200756 95 146 1.0 3.0 0.00 0.00 0.00 19 1008.6
20260503200251 96 313 2.0 5.0 0.00 0.00 0.00 18 1008.8
20260503195749 95 104 2.0 4.0 0.00 0.00 0.00 19 1008.8
20260503195246 94 358 1.0 4.0 0.00 0.00 0.00 20 1008.7
20260503194743 95 353 2.0 3.0 0.00 0.00 0.00 21 1009.0
20260503194239 95 132 2.0 3.0 0.00 0.00 0.00 20 1009.2
20260503193735 94 85 1.0 5.0 0.00 0.00 0.00 20 1009.2
20260503193231 94 227 1.0 2.0 0.00 0.00 0.00 21 1009.2
20260503192727 94 277 3.0 4.0 0.00 0.00 0.00 21 1009.2
20260503192222 93 126 0.0 3.0 0.00 0.00 0.00 23 1009.4
20260503191719 93 271 1.0 5.0 0.00 0.00 0.00 23 1009.4
20260503191217 93 342 0.0 2.0 0.00 0.00 0.00 23 1009.6